User: anonymous   Login
Location: Ffald-y-Brenin
(52.0833°N, 4.0000°W)
Time: 09:03:36
(UTC+00:00)
Language:

CZ-4B R/B - Orbit

View from above orbital plane
View from above orbital plane
View from above satellite
View from above satellite

Ground track
Ground track

The orbit data is extracted from the following two-line orbital elements,

1 27432U 02024C   20157.87623757 -.00000030 +00000-0 +83777-5 0  9997
2 27432 099.0874 159.8740 0049949 208.0287 215.1458 14.14093604932016
Epoch (UTC): 05 June 2020 21:01:46
Eccentricity: 0.0049949
inclination: 99.0874°
perigee height: 809 km
apogee height: 881 km
right ascension of ascending node: 159.8740°
argument of perigee: 208.0287°
revolutions per day: 14.14093604
mean anomaly at epoch: 215.1458°
orbit number at epoch: 93201

The dashed part of the orbit path shows where the satellite is in the earth's shadow,  

DLR